Total_Precipitation_Accumulation
1.94 2.21 2.78 2.51 2.26 2.16 2.17 2.16 2.00 1.99 2.13 2.27 2.29 2.31 2.35 2.37 2.41 2.51 2.62 2.71 2.87 3.03 3.04 3.03 2.87 2.93 2.89 2.82 2.52 2.18 1.97 1.95 1.85 1.69 1.51 1.49 1.59 1.82 2.22 2.38 2.21 1.64 1.60
1.67 2.08 2.54 2.33 2.16 2.12 2.09 2.05 1.92 1.90 2.08 2.22 2.31 2.28 2.35 2.28 2.26 2.28 2.47 2.79 3.06 3.12 3.08 2.85 2.69 2.77 2.74 2.68 2.34 2.10 1.93 1.94 1.86 1.85 1.67 1.42 1.65 2.05 2.40 2.48 2.49 1.75 1.65
1.38 1.78 1.93 2.06 1.99 2.03 2.00 2.05 2.26 2.27 2.30 2.28 2.32 2.24 2.25 2.23 2.25 2.32 2.55 2.77 2.94 2.78 2.71 2.63 2.62 2.53 2.41 2.31 2.13 1.98 1.90 1.83 1.92 2.11 2.23 1.51 1.34 2.04 2.32 2.38 2.21 1.66 1.48
1.27 1.49 1.61 1.85 1.80 1.72 1.85 2.05 2.31 2.44 2.45 2.43 2.35 2.23 2.17 2.26 2.31 2.36 2.36 2.44 2.45 2.26 2.21 2.36 2.47 2.36 2.22 1.97 1.87 1.92 1.90 1.94 2.16 2.53 2.58 1.78 1.33 1.70 2.06 2.02 1.80 1.51 1.34
1.28 1.48 1.69 1.78 1.61 1.50 1.62 1.87 2.14 2.32 2.32 2.29 2.19 2.13 2.17 2.14 2.16 2.21 2.19 2.20 2.12 2.11 2.08 2.12 2.23 2.28 2.12 1.86 1.82 1.93 1.94 2.04 2.39 2.47 2.17 2.07 1.95 1.92 1.96 1.90 1.74 1.52 1.37
1.00 1.24 1.50 1.68 1.55 1.51 1.70 1.84 1.95 2.04 2.07 2.05 2.08 2.14 2.10 2.04 2.05 1.98 1.88 1.87 1.89 1.92 1.82 1.86 2.08 2.21 2.09 1.90 1.85 2.03 2.20 2.39 2.41 1.95 1.82 1.85 1.92 2.03 1.98 2.05 1.98 1.73 1.56
0.82 1.02 1.27 1.57 1.49 1.48 1.60 1.73 1.87 2.01 2.03 2.00 2.05 1.96 1.95 1.95 1.88 1.76 1.60 1.62 1.67 1.68 1.60 1.65 1.81 1.97 2.06 2.02 1.98 2.21 2.35 2.53 2.21 1.80 1.73 1.94 1.81 1.73 1.89 2.12 2.28 2.07 1.76
0.66 0.85 1.04 1.36 1.41 1.40 1.43 1.60 1.88 1.98 1.98 1.92 1.78 1.68 1.69 1.68 1.62 1.55 1.48 1.54 1.56 1.43 1.38 1.47 1.66 1.68 1.91 2.15 2.25 2.38 2.33 2.16 1.71 1.65 1.60 1.67 1.37 1.48 1.79 2.04 2.20 2.08 1.80
0.55 0.65 0.89 1.12 1.27 1.31 1.44 1.58 1.70 1.64 1.58 1.52 1.45 1.51 1.61 1.66 1.53 1.48 1.47 1.57 1.51 1.49 1.50 1.59 1.75 1.70 1.92 2.25 2.28 2.18 2.21 1.98 1.57 1.65 1.52 1.67 1.56 1.72 2.02 2.11 2.05 2.04 1.83
0.75 0.76 0.92 1.03 1.12 1.21 1.32 1.45 1.49 1.50 1.44 1.41 1.41 1.44 1.48 1.56 1.54 1.49 1.51 1.66 1.53 1.49 1.54 1.78 1.93 1.83 2.03 2.18 2.15 2.16 2.26 1.90 1.48 1.51 1.58 1.48 1.61 1.95 2.31 2.32 2.21 2.18 2.04
1.09 1.04 0.99 1.00 1.01 1.06 1.13 1.25 1.44 1.46 1.43 1.38 1.36 1.33 1.39 1.49 1.39 1.47 1.62 1.88 1.78 1.70 1.67 1.88 2.09 2.30 2.30 2.10 2.18 2.26 2.15 1.86 1.86 1.77 1.74 1.53 1.71 2.16 2.47 2.44 2.41 2.45 2.30
1.28 1.26 1.21 1.17 1.02 1.00 1.04 1.28 1.39 1.22 1.28 1.33 1.38 1.33 1.41 1.57 1.67 1.62 1.97 2.21 2.30 2.31 2.23 2.35 2.47 2.42 2.18 2.18 2.66 2.73 2.07 2.01 1.93 1.96 2.09 1.90 2.07 2.55 2.79 2.57 2.44 2.51 2.41
1.44 1.21 1.27 1.49 1.39 1.30 1.42 1.33 1.32 1.36 1.51 1.50 1.40 1.41 1.60 1.45 1.42 1.64 1.91 2.20 2.40 2.47 2.60 2.88 2.96 2.56 2.56 2.83 3.03 2.77 2.18 1.94 1.94 1.87 2.15 2.21 2.35 2.84 3.19 2.93 2.67 2.65 2.60
1.59 1.31 1.25 1.40 1.63 1.64 1.58 1.47 1.38 1.32 1.42 1.48 1.62 1.58 1.73 1.75 1.77 1.95 2.34 2.53 2.72 2.76 3.17 3.21 3.51 3.22 2.89 2.74 2.84 2.69 2.44 2.31 2.11 2.23 2.44 2.11 2.27 2.84 3.40 3.38 3.16 2.99 2.82
1.82 1.61 1.50 1.45 1.69 1.77 1.79 1.69 1.51 1.49 1.50 1.70 1.85 1.87 1.95 2.08 2.35 2.59 2.69 3.01 2.93 2.91 3.18 3.57 3.52 3.67 3.67 3.61 3.36 2.98 2.90 2.72 2.45 2.53 2.61 2.50 2.42 2.70 3.29 3.72 3.60 3.36 3.06
2.25 2.10 1.85 1.69 1.69 1.81 1.88 1.93 1.93 1.80 1.98 2.06 2.19 2.27 2.44 2.65 2.92 3.22 3.27 3.40 3.20 3.14 3.49 3.77 3.84 4.31 4.22 4.03 3.50 3.20 3.04 2.94 2.67 2.54 2.72 2.83 2.50 2.46 2.91 3.69 3.99 3.80 3.59
2.53 2.53 2.42 2.26 2.22 2.32 2.58 2.56 2.34 2.40 2.46 2.60 2.77 2.82 2.87 3.01 3.39 3.66 3.60 3.48 3.46 3.47 3.75 3.99 4.13 4.27 4.01 3.82 3.64 3.42 3.25 3.01 2.60 2.59 2.63 2.83 2.67 2.50 2.81 3.26 3.74 3.87 3.98
2.63 2.98 3.05 2.86 2.99 3.14 3.38 3.39 3.09 3.03 3.02 3.08 3.07 3.09 3.08 3.23 3.48 3.93 3.69 3.49 3.81 3.65 3.81 4.35 4.40 4.36 4.31 4.07 3.86 3.51 3.29 3.11 2.61 2.48 2.46 2.74 3.10 2.68 2.79 3.19 3.43 3.55 4.10
2.78 3.27 3.50 3.64 3.79 3.83 3.91 3.91 3.80 3.65 3.53 3.30 3.31 3.28 3.13 3.17 3.32 3.69 3.55 3.59 3.64 3.92 4.00 3.72 4.37 4.49 4.37 4.13 3.52 3.32 2.95 2.81 2.69 2.39 2.51 2.60 2.97 2.80 2.78 2.88 3.20 3.39 4.01
3.19 3.58 4.09 4.31 4.41 4.22 4.13 4.11 3.93 3.69 3.54 3.36 3.32 3.28 3.08 3.12 3.18 3.64 3.44 3.42 3.48 3.87 3.95 3.94 4.37 4.37 4.10 4.08 3.26 3.02 2.85 2.44 2.42 2.47 2.32 2.50 2.69 2.34 2.52 2.84 3.31 2.96 3.25
3.72 3.99 4.27 4.67 4.84 4.68 4.68 4.60 4.47 4.17 4.01 3.66 3.23 2.89 2.84 2.84 3.06 3.52 3.21 3.53 3.44 3.60 3.67 3.68 4.02 4.15 3.80 3.87 3.84 3.36 2.66 2.23 2.19 2.20 2.24 2.41 2.38 2.44 2.96 3.48 3.62 3.50 3.28
3.56 4.06 4.39 4.38 4.28 4.06 4.21 4.54 4.79 4.77 4.27 3.67 3.31 3.16 2.80 2.76 2.87 3.03 3.27 3.17 3.20 3.39 3.40 3.48 3.83 3.84 3.45 3.58 3.83 3.90 3.16 2.80 2.29 1.77 2.12 2.25 2.31 2.64 2.83 3.00 3.36 3.70 3.77
2.99 3.50 3.64 3.51 3.45 3.32 3.41 3.75 4.03 4.30 4.06 3.73 3.42 3.13 2.78 2.70 2.67 2.76 2.95 2.97 2.97 2.86 3.10 3.35 3.36 3.42 3.38 3.35 3.40 3.83 3.53 3.10 2.61 2.04 1.93 2.03 2.33 2.58 2.58 2.77 2.82 3.14 3.38
2.12 2.38 2.57 2.77 2.87 2.88 2.93 3.16 3.36 3.57 3.57 3.46 3.37 3.07 2.75 2.48 2.44 2.53 2.59 2.59 2.62 2.59 2.89 2.67 2.76 3.11 3.37 3.23 3.15 3.10 3.16 3.29 3.16 2.52 2.03 1.94 2.17 2.33 2.33 2.29 2.52 2.87 2.97
1.84 2.05 2.29 2.59 2.74 2.82 2.81 2.90 3.11 3.42 3.44 3.22 3.04 3.03 2.82 2.58 2.33 2.25 2.39 2.45 2.41 2.35 2.46 2.53 2.85 2.87 3.02 3.03 3.02 3.01 3.11 3.15 2.98 2.79 2.43 2.26 2.20 1.97 1.96 2.11 2.32 2.67 2.85
1.66 1.90 2.13 2.37 2.38 2.50 2.56 2.58 2.63 2.82 2.96 2.80 2.62 2.61 2.46 2.31 2.17 2.09 2.16 2.37 2.28 2.23 2.35 2.43 2.55 2.58 2.69 2.80 2.79 2.79 3.02 2.90 2.83 2.93 2.63 2.46 2.36 2.04 1.98 2.08 2.20 2.43 2.58